View from above orbital plane
|
View from above satellite
|
Ground track
|
The orbit data is extracted from the following two-line orbital elements,
1 23560U 95021A 21104.57563289 .00000932 00000-0 42452-4 0 9991
2 23560 98.5540 305.8255 0002647 207.4037 152.7057 15.23816341387963
Epoch (UTC): | 14 April 2021 13:48:54 |
Eccentricity: | 0.0002647 |
inclination: | 98.5540° |
perigee height: | 492 km |
apogee height: | 496 km |
right ascension of ascending node: | 305.8255° |
argument of perigee: | 207.4037° |
revolutions per day: | 15.23816341 |
mean anomaly at epoch: | 152.7057° |
orbit number at epoch: | 38796 |
The dashed part of the orbit path shows where the satellite is in the earth's shadow,
|
|